Tracking 30743 objects as of 20-Jun-2025
HD Live streaming from Space Station
objects crossing your sky now

STARLINK-30329

Track STARLINK-30329 now!
10-day predictions
STARLINK-30329 is classified as:


NORAD ID: 57635
Int'l Code: 2023-122D
Perigee: 565.8 km
Apogee: 566.6 km
Inclination: 43.0 °
Period: 95.8 minutes
Semi major axis: 6937 km
RCS: Unknown
Launch date: August 17, 2023
Source: United States (US)
Launch site: AIR FORCE EASTERN TEST RANGE (AFETR)
Your satellite tracking list
Your tracking list is empty




NASA's NSSDC Master Catalog

Two Line Element Set (TLE):
1 57635U 23122D   25170.93897491  .00000266  00000-0  34722-4 0  9997
2 57635  43.0034  82.6599 0000612 251.6707 108.4069 15.02534030102596
Source of the keplerian elements: AFSPC